Flag for Bahamas Weather past 2 weeks in Nassau, Bahamas

Now
79 °F

Passing clouds.


Feels Like: 81 °F
Forecast: 78 / 82 °F
Wind: 3 mph from East

Location: Nassau Airport

Current Time: May 29, 2015 at 10:47:24 PM

Latest Report: May 29, 2015 at 10:00 PM


Visibility: N/A

Pressure: 30.06 "Hg

Humidity: 70%

Dew point: 68 °F

Location of NassauLocation

Historic Weather in Nassau — Graph

°F

Nassau temperature yesterday

Maximum temperature yesterday: 82 °F (at 12:00 PM)
Minimum temperature yesterday: 77 °F (at 9:00 PM)
Average temperature yesterday: 80 °F

Past Weeks' High & Low Weather Summary

 TemperatureHumidityPressure
High88 °F (May 21, 2:00 PM)100% (May 18, 11:00 PM)30.22 "Hg (May 18, 11:00 PM)
Low73 °F (May 18, 4:00 AM)54% (May 28, 7:00 PM)29.98 "Hg (May 20, 6:00 PM)
Average80 °F75%30.11 "Hg
* Reported May 14 9:00 PM — May 29 9:00 PM, Nassau, Weather by CustomWeather, © 2015

Note: Actual official high and low records may vary slightly from our data, if they occured in-between our weather recording intervals... More about our weather records

Advertising

Nassau weather history for previous 24 hours

 ConditionsComfort  
Time TempWeatherWind HumidityBarometerVisibility
9:00 PM
Fri, May 29
79 °FPassing clouds.3 mph70%30.04 "HgN/A
8:00 PM81 °FScattered clouds.N/A70%30.03 "HgN/A
7:00 PM81 °FScattered clouds.8 mph66%30.02 "HgN/A
5:00 PM82 °FScattered clouds.8 mph62%30.03 "HgN/A
3:00 PM84 °FScattered clouds.13 mph58%30.04 "HgN/A
2:00 PM82 °FScattered clouds.3 mph70%30.05 "HgN/A
1:00 PM82 °FScattered clouds.7 mph58%30.06 "HgN/A
12:00 PM82 °FScattered clouds.9 mph66%30.07 "HgN/A
11:00 AM84 °FScattered clouds.8 mph62%30.06 "HgN/A
10:00 AM81 °FScattered clouds.8 mph70%30.06 "HgN/A
9:00 AM81 °FBroken clouds.6 mph70%30.05 "HgN/A
8:00 AM79 °FBroken clouds.6 mph79%30.04 "HgN/A
7:00 AM75 °FPartly cloudy.1 mph78%30.03 "HgN/A
6:00 AM75 °FPartly cloudy.2 mph78%30.02 "HgN/A
5:00 AM75 °FPassing clouds.3 mph83%30.01 "HgN/A
4:00 AM75 °FPassing clouds.3 mph78%30.01 "HgN/A
3:00 AM77 °FPassing clouds.5 mph74%30.02 "HgN/A
2:00 AM77 °FPassing clouds.3 mph74%30.04 "HgN/A
1:00 AM75 °FPassing clouds.1 mph74%30.06 "HgN/A
12:00 AM75 °FPassing clouds.3 mph69%30.08 "HgN/A
11:00 PM
Thu, May 28
77 °FPassing clouds.5 mph65%30.08 "HgN/A
10:00 PM77 °FClear.6 mph61%30.08 "HgN/A
Weather by CustomWeather, © 2015

See weather overviewHow to use our weather pages